Location: Vale
(35.4830°N, 81.3830°W)
Time: 17:14:54
(UTC-04:00)

SR - All Passes

Search period start: 19 April 2015 00:00
Search period end: 29 April 2015 00:00
Orbit: 585 x 876 km, 66.7° (Epoch: 19 April)

Date Brightness Start Highest point End Pass type
(mag) Time Alt. Az. Time Alt. Az. Time Alt. Az.
19 Apr - 04:06:31 10° N 04:09:57 23° NE 04:13:37 10° ESE visible
19 Apr - 05:48:11 10° NW 05:52:04 30° WSW 05:56:04 10° S visible
19 Apr - 18:34:09 10° S 18:38:21 31° ESE 18:42:23 10° NE daylight
19 Apr - 20:16:39 10° WSW 20:20:29 23° NW 20:24:02 10° N daylight
20 Apr - 03:19:32 10° NNE 03:20:46 11° NE 03:22:14 10° ENE visible
20 Apr - 04:58:59 10° NNW 05:03:21 71° WSW 05:07:58 10° SSE visible
20 Apr - 17:47:22 10° SE 17:49:40 14° ESE 17:52:08 10° ENE daylight
20 Apr - 19:26:52 10° SW 19:31:30 50° WNW 19:35:50 10° NNE daylight
21 Apr - 04:10:17 10° NNW 04:14:31 49° ENE 04:19:01 10° SE visible
21 Apr - 05:54:04 10° WNW 05:56:20 13° WSW 05:58:25 10° SW visible
21 Apr - 18:37:54 10° SSW 18:42:41 71° ESE 18:47:08 10° NNE daylight
21 Apr - 20:23:30 10° WNW 20:25:14 12° NW 20:26:45 10° NNW visible
22 Apr - 03:22:06 10° N 03:25:32 23° NE 03:29:12 10° ESE visible
22 Apr - 05:03:44 10° NW 05:07:39 30° WSW 05:11:42 10° S visible
22 Apr - 17:49:47 10° S 17:53:57 30° ESE 17:57:55 10° NE daylight
22 Apr - 19:32:14 10° WSW 19:36:03 24° NW 19:39:36 10° N daylight
23 Apr - 02:35:09 10° NNE 02:36:19 11° NE 02:37:45 10° ENE visible
23 Apr - 04:14:31 10° NNW 04:18:55 72° WSW 04:23:34 10° SSE visible
23 Apr - 17:03:04 10° SE 17:05:14 13° ESE 17:07:37 10° ENE daylight
23 Apr - 18:42:27 10° SW 18:47:04 51° WNW 18:51:23 10° NNE daylight
24 Apr - 03:25:51 10° NNW 03:30:05 48° ENE 03:34:36 10° SE visible
24 Apr - 05:09:32 10° WNW 05:11:54 14° WSW 05:14:06 10° SW night (unlit)
24 Apr - 17:53:30 10° SSW 17:58:15 70° ESE 18:02:40 10° NNE daylight
24 Apr - 19:39:01 10° WNW 19:40:48 12° NW 19:42:19 10° NNW daylight
25 Apr - 02:37:39 10° N 02:41:05 23° NE 02:44:45 10° ESE visible
25 Apr - 04:19:16 10° NW 04:23:12 31° WSW 04:27:19 10° S visible
25 Apr - 17:05:24 10° S 17:09:30 30° ESE 17:13:26 10° NE daylight
25 Apr - 18:47:48 10° WSW 18:51:35 24° NW 18:55:09 10° N daylight
26 Apr - 01:50:43 10° NNE 01:51:52 11° NE 01:53:15 10° ENE visible
26 Apr - 03:30:04 10° NNW 03:34:27 74° WSW 03:39:09 10° SSE visible
26 Apr - 16:18:44 10° SE 16:20:48 13° ESE 16:23:03 10° E daylight
26 Apr - 17:58:01 10° SW 18:02:36 51° WNW 18:06:55 10° NNE daylight
27 Apr - 02:41:23 10° NNW 02:45:37 48° ENE 02:50:09 10° SE visible
27 Apr - 04:24:58 10° WNW 04:27:27 14° WSW 04:29:46 10° SW night (unlit)
27 Apr - 17:09:04 10° SSW 17:13:47 69° ESE 17:18:11 10° NNE daylight
27 Apr - 18:54:31 10° WNW 18:56:19 12° NW 18:57:53 10° NNW daylight
28 Apr - 01:53:11 10° N 01:56:37 22° NE 02:00:17 10° ESE visible
28 Apr - 03:34:45 10° NW 03:38:45 32° WSW 03:42:54 10° S visible
28 Apr - 16:20:59 10° S 16:25:02 29° ESE 16:28:55 10° NE daylight
28 Apr - 18:03:19 10° WSW 18:07:07 24° NW 18:10:41 10° N daylight
